Flag for U.S.A. Weather past 2 weeks in Santa Cruz, California, U.S.A.

Now
52 °F

Clear.


Feels Like: 50 °F
Forecast: 51 / 72 °F
Wind: 6 mph from Northwest

Location: Watsonville Municipal Airport

Current Time: Apr 27, 2015 at 4:36:28 AM

Latest Report: Apr 27, 2015 at 3:53 AM


Visibility: 10 mi

Pressure: 30.03 "Hg

Humidity: 83%

Dew point: 47 °F

Location of Santa CruzLocation

Historic Weather in Santa Cruz — Graph

°F

Santa Cruz temperature yesterday

Maximum temperature yesterday: 73 °F (at 4:53 PM)
Minimum temperature yesterday: 46 °F (at 5:53 AM)
Average temperature yesterday: 58 °F

Past Weeks' High & Low Weather Summary

 TemperatureHumidityPressure
High81 °F (Apr 16, 1:53 PM)93% (Apr 13, 7:53 AM)30.32 "Hg (Apr 13, 7:53 AM)
Low42 °F (Apr 15, 5:53 AM)14% (Apr 14, 1:53 PM)29.87 "Hg (Apr 20, 6:53 PM)
Average58 °F70%30.02 "Hg
* Reported Apr 12 2:53 AM — Apr 27 2:53 AM, Santa Cruz, Weather by CustomWeather, © 2015

Note: Actual official high and low records may vary slightly from our data, if they occured in-between our weather recording intervals... More about our weather records

Advertising

Santa Cruz weather history for previous 24 hours

 ConditionsComfort  
Time TempWeatherWind HumidityBarometerVisibility
2:53 AM
Mon, Apr 27
52 °FClear.5 mph83%30.03 "Hg10 mi
1:53 AM53 °FClear.5 mph80%30.05 "Hg10 mi
12:53 AM53 °FClear.3 mph83%30.07 "Hg10 mi
11:53 PM
Sun, Apr 26
55 °FClear.No wind80%30.08 "Hg10 mi
10:53 PM56 °FClear.No wind77%30.09 "Hg10 mi
9:53 PM57 °FClear.No wind74%30.09 "Hg10 mi
8:53 PM59 °FClear.5 mph69%30.08 "Hg10 mi
7:53 PM62 °FSunny.6 mph65%30.06 "Hg10 mi
6:53 PM65 °FSunny.9 mph61%30.05 "Hg10 mi
5:53 PM71 °FSunny.9 mph47%30.05 "Hg10 mi
4:53 PM73 °FSunny.5 mph33%30.06 "Hg10 mi
3:53 PM72 °FSunny.8 mph40%30.08 "Hg10 mi
2:53 PM70 °FSunny.8 mph41%30.10 "Hg10 mi
1:53 PM68 °FSunny.8 mph42%30.12 "Hg10 mi
12:53 PM67 °FSunny.7 mph47%30.14 "Hg10 mi
11:53 AM65 °FSunny.8 mph51%30.15 "Hg10 mi
10:53 AM62 °FSunny.No wind52%30.15 "Hg10 mi
9:53 AM59 °FSunny.No wind62%30.15 "Hg10 mi
8:53 AM56 °FSunny.No wind67%30.14 "Hg10 mi
7:53 AM52 °FSunny.No wind75%30.13 "Hg10 mi
6:53 AM47 °FClear.5 mph83%30.12 "Hg10 mi
5:53 AM46 °FClear.3 mph83%30.11 "Hg10 mi
4:53 AM47 °FClear.3 mph83%30.10 "Hg10 mi
Weather by CustomWeather, © 2015

See weather overviewHow to use our weather pages